| time (UTC) | temp F | wind direction | speed knots | gust knots | rain 1hr in | rain 24hr in | rain mn in | humidity % | barometer mb |
| 20260505152934 | 57 | 209 | 5.2 | 6.1 | 0.00 | 0.00 | 0.00 | 10 | 1011.0 |
| 20260505152426 | 57 | 187 | 3.5 | 5.2 | 0.00 | 0.00 | 0.00 | 10 | 1011.1 |
| 20260505151925 | 57 | 125 | 6.1 | 7.0 | 0.00 | 0.00 | 0.00 | 10 | 1010.9 |
| 20260505151421 | 57 | 187 | 4.3 | 6.1 | 0.00 | 0.00 | 0.00 | 10 | 1010.7 |
| 20260505150919 | 57 | 147 | 5.2 | 7.0 | 0.00 | 0.00 | 0.00 | 10 | 1010.9 |
| 20260505150416 | 57 | 183 | 4.3 | 5.2 | 0.00 | 0.00 | 0.00 | 10 | 1010.9 |
| 20260505140340 | 57 | 192 | 4.3 | 5.2 | 0.00 | 0.00 | 0.00 | 10 | 1010.2 |
| 20260505130303 | 56 | 183 | 4.3 | 5.2 | 0.00 | 0.00 | 0.00 | 10 | 1009.8 |
| 20260505124754 | 56 | 191 | 3.5 | 4.3 | 0.00 | 0.00 | 0.00 | 10 | 1009.4 |
| 20260505124251 | 56 | 168 | 3.5 | 4.3 | 0.00 | 0.00 | 0.00 | 10 | 1009.5 |
| 20260505123746 | 56 | 152 | 4.3 | 5.2 | 0.00 | 0.00 | 0.00 | 10 | 1009.7 |
| 20260505123243 | 56 | 184 | 3.5 | 4.3 | 0.00 | 0.00 | 0.00 | 10 | 1009.3 |
| 20260505122740 | 56 | 195 | 2.6 | 4.3 | 0.00 | 0.00 | 0.00 | 10 | 1009.5 |
| 20260505122237 | 56 | 186 | 1.7 | 1.7 | 0.00 | 0.00 | 0.00 | 10 | 1009.4 |
| 20260505121733 | 56 | 184 | 4.3 | 5.2 | 0.00 | 0.00 | 0.00 | 10 | 1009.4 |
| 20260505121230 | 56 | 169 | 4.3 | 6.1 | 0.00 | 0.00 | 0.00 | 10 | 1009.4 |
| 20260505120726 | 55 | 187 | 4.3 | 6.1 | 0.00 | 0.00 | 0.00 | 10 | 1009.4 |
| 20260505120223 | 55 | 210 | 2.6 | 4.3 | 0.00 | 0.00 | 0.00 | 10 | 1009.8 |
| 20260505115721 | 55 | 212 | 4.3 | 7.0 | 0.00 | 0.00 | 0.00 | 10 | 1009.5 |
| 20260505115219 | 56 | 194 | 3.5 | 4.3 | 0.00 | 0.00 | 0.00 | 10 | 1009.5 |
| 20260505114716 | 56 | 190 | 3.5 | 5.2 | 0.00 | 0.00 | 0.00 | 10 | 1009.5 |
| 20260505114212 | 56 | 176 | 4.3 | 5.2 | 0.00 | 0.00 | 0.00 | 10 | 1009.3 |
| 20260505113709 | 56 | 195 | 2.6 | 2.6 | 0.00 | 0.00 | 0.00 | 10 | 1009.3 |
| 20260505113206 | 56 | 179 | 2.6 | 2.6 | 0.00 | 0.00 | 0.00 | 10 | 1009.2 |
| 20260505112702 | 56 | 176 | 2.6 | 4.3 | 0.00 | 0.00 | 0.00 | 10 | 1009.3 |
| 20260505112200 | 56 | 189 | 0.9 | 0.9 | 0.00 | 0.00 | 0.00 | 10 | 1009.5 |
| 20260505111659 | 56 | 188 | 0.0 | 0.9 | 0.00 | 0.00 | 0.00 | 10 | 1009.4 |
| 20260505111155 | 57 | 184 | 0.9 | 0.9 | 0.00 | 0.00 | 0.00 | 10 | 1009.4 |
| 20260505110651 | 57 | 172 | 4.3 | 5.2 | 0.00 | 0.00 | 0.00 | 10 | 1009.2 |
| 20260505110149 | 57 | 195 | 2.6 | 2.6 | 0.00 | 0.00 | 0.00 | 10 | 1009.2 |
| 20260505102125 | 57 | 200 | 2.6 | 4.3 | 0.00 | 0.00 | 0.00 | 10 | 1009.3 |
| 20260505101623 | 57 | 151 | 3.5 | 5.2 | 0.00 | 0.00 | 0.00 | 10 | 1009.1 |
| 20260505101119 | 57 | 189 | 3.5 | 4.3 | 0.00 | 0.00 | 0.00 | 10 | 1009.3 |
| 20260505100616 | 57 | 158 | 2.6 | 2.6 | 0.00 | 0.00 | 0.00 | 10 | 1009.3 |
| 20260505100113 | 57 | 173 | 1.7 | 1.7 | 0.00 | 0.00 | 0.00 | 10 | 1009.3 |
| 20260505095609 | 57 | 163 | 3.5 | 5.2 | 0.00 | 0.00 | 0.00 | 10 | 1009.5 |
| 20260505095105 | 57 | 196 | 1.7 | 2.6 | 0.00 | 0.00 | 0.00 | 10 | 1009.4 |
| 20260505094602 | 57 | 186 | 8.7 | 12.2 | 0.00 | 0.00 | 0.00 | 10 | 1009.5 |
| 20260505094058 | 58 | 180 | 4.3 | 7.8 | 0.00 | 0.00 | 0.00 | 10 | 1009.7 |
| 20260505093554 | 58 | 173 | 5.2 | 7.0 | 0.00 | 0.00 | 0.00 | 10 | 1009.4 |
| 20260505093052 | 58 | 181 | 4.3 | 5.2 | 0.00 | 0.00 | 0.00 | 10 | 1009.5 |
| 20260505092549 | 58 | 162 | 7.0 | 8.7 | 0.00 | 0.00 | 0.00 | 10 | 1009.7 |
| 20260505092048 | 58 | 162 | 6.1 | 7.8 | 0.00 | 0.00 | 0.00 | 10 | 1009.7 |
| 20260505091544 | 58 | 202 | 5.2 | 7.0 | 0.00 | 0.00 | 0.00 | 10 | 1009.5 |
| 20260505091043 | 58 | 183 | 9.6 | 13.9 | 0.00 | 0.00 | 0.00 | 10 | 1009.5 |
| 20260505090540 | 58 | 176 | 9.6 | 14.8 | 0.00 | 0.00 | 0.00 | 10 | 1009.7 |
| 20260505090038 | 58 | 208 | 9.6 | 13.9 | 0.00 | 0.00 | 0.00 | 10 | 1009.5 |
| 20260505085535 | 58 | 165 | 7.8 | 9.6 | 0.00 | 0.00 | 0.00 | 10 | 1009.5 |
| 20260505085034 | 58 | 167 | 9.6 | 12.2 | 0.00 | 0.00 | 0.00 | 10 | 1009.4 |
| 20260505084531 | 58 | 174 | 8.7 | 11.3 | 0.00 | 0.00 | 0.00 | 10 | 1009.8 |
| 20260505084029 | 58 | 185 | 4.3 | 6.1 | 0.00 | 0.00 | 0.00 | 10 | 1009.8 |
| 20260505083526 | 58 | 151 | 3.5 | 5.2 | 0.00 | 0.00 | 0.00 | 10 | 1009.5 |
| 20260505083023 | 58 | 141 | 11.3 | 17.4 | 0.00 | 0.00 | 0.00 | 10 | 1009.4 |
| 20260505082518 | 58 | 144 | 14.8 | 20.9 | 0.00 | 0.00 | 0.00 | 10 | 1009.7 |
| 20260505082015 | 58 | 136 | 6.1 | 7.8 | 0.00 | 0.00 | 0.00 | 10 | 1009.7 |
| 20260505081512 | 58 | 151 | 7.0 | 9.6 | 0.00 | 0.00 | 0.00 | 10 | 1009.8 |
| 20260505081009 | 58 | 137 | 7.0 | 8.7 | 0.00 | 0.00 | 0.00 | 10 | 1009.8 |
| 20260505080505 | 58 | 130 | 5.2 | 7.0 | 0.00 | 0.00 | 0.00 | 10 | 1010.2 |
| 20260505080001 | 58 | 149 | 6.1 | 7.8 | 0.00 | 0.00 | 0.00 | 10 | 1009.9 |
| 20260505075457 | 58 | 149 | 8.7 | 8.7 | 0.00 | 0.00 | 0.00 | 10 | 1010.1 |
| 20260505074955 | 58 | 148 | 8.7 | 14.8 | 0.00 | 0.00 | 0.00 | 10 | 1009.9 |
| 20260505074452 | 58 | 130 | 10.4 | 13.0 | 0.00 | 0.00 | 0.00 | 10 | 1009.9 |
| 20260505073949 | 58 | 178 | 5.2 | 6.1 | 0.00 | 0.00 | 0.00 | 10 | 1010.1 |
| 20260505073447 | 58 | 145 | 8.7 | 9.6 | 0.00 | 0.00 | 0.00 | 10 | 1010.1 |
| 20260505072944 | 58 | 148 | 4.3 | 5.2 | 0.00 | 0.00 | 0.00 | 10 | 1010.2 |
| 20260505072440 | 58 | 140 | 7.0 | 8.7 | 0.00 | 0.00 | 0.00 | 10 | 1010.1 |
| 20260505071936 | 59 | 164 | 7.8 | 9.6 | 0.00 | 0.00 | 0.00 | 10 | 1010.5 |
| 20260505071432 | 59 | 139 | 3.5 | 5.2 | 0.00 | 0.00 | 0.00 | 10 | 1010.3 |
| 20260505070930 | 59 | 146 | 4.3 | 5.2 | 0.00 | 0.00 | 0.00 | 10 | 1010.5 |
| 20260505070427 | 59 | 142 | 7.0 | 8.7 | 0.00 | 0.00 | 0.00 | 10 | 1010.5 |
| 20260505065922 | 59 | 153 | 1.7 | 1.7 | 0.00 | 0.00 | 0.00 | 10 | 1010.3 |
| 20260505065419 | 59 | 187 | 4.3 | 5.2 | 0.00 | 0.00 | 0.00 | 10 | 1010.3 |
| 20260505064916 | 59 | 167 | 4.3 | 6.1 | 0.00 | 0.00 | 0.00 | 10 | 1010.6 |
| 20260505064413 | 59 | 146 | 3.5 | 5.2 | 0.00 | 0.00 | 0.00 | 10 | 1010.5 |
| 20260505063911 | 59 | 163 | 4.3 | 5.2 | 0.00 | 0.00 | 0.00 | 10 | 1010.2 |
| 20260505063407 | 59 | 154 | 7.0 | 7.8 | 0.00 | 0.00 | 0.00 | 10 | 1010.3 |
| 20260505062904 | 59 | 186 | 3.5 | 5.2 | 0.00 | 0.00 | 0.00 | 10 | 1010.1 |
| 20260505062401 | 59 | 191 | 4.3 | 6.1 | 0.00 | 0.00 | 0.00 | 10 | 1010.2 |
| 20260505061858 | 60 | 184 | 6.1 | 7.8 | 0.00 | 0.00 | 0.00 | 10 | 1010.1 |
| 20260505061356 | 60 | 220 | 4.3 | 6.1 | 0.00 | 0.00 | 0.00 | 10 | 1010.5 |
| 20260505060853 | 60 | 197 | 2.6 | 4.3 | 0.00 | 0.00 | 0.00 | 10 | 1010.5 |
| 20260505060350 | 60 | 162 | 2.6 | 5.2 | 0.00 | 0.00 | 0.00 | 10 | 1010.3 |
| 20260505055846 | 61 | 202 | 7.0 | 8.7 | 0.00 | 0.00 | 0.00 | 10 | 1009.8 |
| 20260505055342 | 60 | 183 | 5.2 | 6.1 | 0.00 | 0.00 | 0.00 | 10 | 1010.1 |
| 20260505054840 | 59 | 228 | 1.7 | 1.7 | 0.00 | 0.00 | 0.00 | 10 | 1009.8 |
| 20260505054337 | 61 | 211 | 1.7 | 2.6 | 0.00 | 0.00 | 0.00 | 10 | 1009.7 |
| 20260505053835 | 61 | 201 | 2.6 | 2.6 | 0.00 | 0.00 | 0.00 | 10 | 1009.4 |
| 20260505053331 | 61 | 202 | 0.9 | 1.7 | 0.00 | 0.00 | 0.00 | 10 | 1009.5 |
| 20260505052828 | 61 | 215 | 4.3 | 6.1 | 0.00 | 0.00 | 0.00 | 10 | 1009.5 |
| 20260505052325 | 61 | 196 | 3.5 | 6.1 | 0.00 | 0.00 | 0.00 | 10 | 1009.4 |
| 20260505051822 | 61 | 198 | 6.1 | 7.8 | 0.00 | 0.00 | 0.00 | 10 | 1009.2 |
| 20260505051320 | 61 | 181 | 2.6 | 6.1 | 0.00 | 0.00 | 0.00 | 10 | 1009.4 |
| 20260505050818 | 61 | 188 | 2.6 | 2.6 | 0.00 | 0.00 | 0.00 | 10 | 1009.2 |
| 20260505050316 | 61 | 163 | 5.2 | 8.7 | 0.00 | 0.00 | 0.00 | 10 | 1008.9 |
| 20260505041746 | 64 | 203 | 5.2 | 6.1 | 0.00 | 0.00 | 0.00 | 10 | 1008.2 |
| 20260505041243 | 64 | 168 | 4.3 | 6.1 | 0.00 | 0.00 | 0.00 | 10 | 1008.3 |
| 20260505040740 | 64 | 143 | 5.2 | 7.0 | 0.00 | 0.00 | 0.00 | 10 | 1008.1 |
| 20260505040238 | 64 | 176 | 2.6 | 2.6 | 0.00 | 0.00 | 0.00 | 10 | 1008.1 |
| 20260505035734 | 64 | 197 | 4.3 | 5.2 | 0.00 | 0.00 | 0.00 | 10 | 1008.0 |
| 20260505035230 | 64 | 181 | 4.3 | 6.1 | 0.00 | 0.00 | 0.00 | 10 | 1008.0 |
| 20260505034727 | 64 | 146 | 3.5 | 5.2 | 0.00 | 0.00 | 0.00 | 10 | 1008.2 |
| 20260505034224 | 64 | 185 | 3.5 | 4.3 | 0.00 | 0.00 | 0.00 | 10 | 1008.4 |
| 20260505033721 | 64 | 194 | 0.9 | 0.9 | 0.00 | 0.00 | 0.00 | 10 | 1008.0 |
| 20260505033219 | 65 | 196 | 1.7 | 1.7 | 0.00 | 0.00 | 0.00 | 10 | 1007.7 |
| 20260505032717 | 65 | 194 | 0.9 | 1.7 | 0.00 | 0.00 | 0.00 | 10 | 1007.8 |
| 20260505032212 | 65 | 170 | 1.7 | 1.7 | 0.00 | 0.00 | 0.00 | 10 | 1007.4 |
| 20260505031710 | 65 | 150 | 1.7 | 1.7 | 0.00 | 0.00 | 0.00 | 10 | 1007.6 |
| 20260505031206 | 65 | 186 | 0.9 | 0.9 | 0.00 | 0.00 | 0.00 | 10 | 1007.5 |
| 20260505030703 | 66 | 182 | 1.7 | 1.7 | 0.00 | 0.00 | 0.00 | 10 | 1007.4 |
| 20260505030159 | 66 | 186 | 1.7 | 1.7 | 0.00 | 0.00 | 0.00 | 10 | 1007.2 |
| 20260505025655 | 66 | 185 | 2.6 | 2.6 | 0.00 | 0.00 | 0.00 | 10 | 1007.0 |
| 20260505025153 | 67 | 187 | 2.6 | 2.6 | 0.00 | 0.00 | 0.00 | 10 | 1007.3 |
| 20260505024651 | 67 | 187 | 2.6 | 2.6 | 0.00 | 0.00 | 0.00 | 10 | 1007.0 |
| 20260505024147 | 67 | 194 | 4.3 | 6.1 | 0.00 | 0.00 | 0.00 | 10 | 1007.2 |
| 20260505023645 | 67 | 173 | 4.3 | 5.2 | 0.00 | 0.00 | 0.00 | 10 | 1007.2 |
| 20260505023143 | 67 | 201 | 2.6 | 6.1 | 0.00 | 0.00 | 0.00 | 10 | 1007.0 |
| 20260505022640 | 68 | 171 | 4.3 | 5.2 | 0.00 | 0.00 | 0.00 | 10 | 1007.3 |
| 20260505022137 | 68 | 184 | 1.7 | 1.7 | 0.00 | 0.00 | 0.00 | 10 | 1007.0 |
| 20260505021633 | 68 | 170 | 4.3 | 6.1 | 0.00 | 0.00 | 0.00 | 10 | 1006.9 |
| 20260505021125 | 69 | 181 | 9.6 | 11.3 | 0.00 | 0.00 | 0.00 | 10 | 1007.2 |
| 20260505020620 | 69 | 184 | 4.3 | 5.2 | 0.00 | 0.00 | 0.00 | 10 | 1006.9 |
| 20260505020116 | 70 | 199 | 2.6 | 2.6 | 0.00 | 0.00 | 0.00 | 10 | 1006.8 |
| 20260505015613 | 70 | 163 | 4.3 | 6.1 | 0.00 | 0.00 | 0.00 | 10 | 1006.7 |
| 20260505015110 | 70 | 195 | 6.1 | 7.8 | 0.00 | 0.00 | 0.00 | 10 | 1007.2 |
| 20260505014607 | 71 | 166 | 3.5 | 4.3 | 0.00 | 0.00 | 0.00 | 10 | 1006.8 |
| 20260505014104 | 71 | 192 | 5.2 | 6.1 | 0.00 | 0.00 | 0.00 | 10 | 1006.7 |
| 20260505013601 | 71 | 188 | 12.2 | 17.4 | 0.00 | 0.00 | 0.00 | 10 | 1006.7 |
| 20260505013058 | 71 | 170 | 8.7 | 9.6 | 0.00 | 0.00 | 0.00 | 10 | 1006.7 |
| 20260505012556 | 71 | 203 | 4.3 | 6.1 | 0.00 | 0.00 | 0.00 | 10 | 1006.7 |
| 20260505012053 | 71 | 160 | 3.5 | 4.3 | 0.00 | 0.00 | 0.00 | 10 | 1006.7 |
| 20260505011549 | 71 | 202 | 3.5 | 5.2 | 0.00 | 0.00 | 0.00 | 10 | 1006.7 |
| 20260505011046 | 72 | 192 | 7.0 | 7.8 | 0.00 | 0.00 | 0.00 | 10 | 1006.8 |
| 20260505010541 | 72 | 226 | 7.0 | 7.8 | 0.00 | 0.00 | 0.00 | 10 | 1006.9 |
| 20260505010038 | 72 | 216 | 5.2 | 7.0 | 0.00 | 0.00 | 0.00 | 10 | 1006.8 |
| 20260505005534 | 72 | 221 | 6.1 | 7.8 | 0.00 | 0.00 | 0.00 | 10 | 1006.9 |
| 20260505005032 | 72 | 175 | 6.1 | 8.7 | 0.00 | 0.00 | 0.00 | 10 | 1007.0 |
| 20260505004529 | 72 | 189 | 7.0 | 9.6 | 0.00 | 0.00 | 0.00 | 10 | 1007.2 |
| 20260505004020 | 72 | 224 | 10.4 | 12.2 | 0.00 | 0.00 | 0.00 | 10 | 1007.2 |
| 20260505003518 | 72 | 204 | 9.6 | 11.3 | 0.00 | 0.00 | 0.00 | 10 | 1007.2 |
| 20260505003015 | 72 | 225 | 10.4 | 12.2 | 0.00 | 0.00 | 0.00 | 10 | 1007.3 |
| 20260505002510 | 73 | 205 | 5.2 | 6.1 | 0.00 | 0.00 | 0.00 | 10 | 1007.4 |
| 20260505002009 | 73 | 218 | 7.8 | 11.3 | 0.00 | 0.00 | 0.00 | 10 | 1007.3 |
| 20260505001506 | 73 | 148 | 9.6 | 12.2 | 0.00 | 0.00 | 0.00 | 10 | 1007.5 |
| 20260505001003 | 73 | 204 | 7.8 | 8.7 | 0.00 | 0.00 | 0.00 | 10 | 1007.2 |
| 20260505000500 | 73 | 215 | 6.1 | 7.0 | 0.00 | 0.00 | 0.00 | 10 | 1007.3 |
| 20260504235957 | 73 | 196 | 6.1 | 6.1 | 0.00 | 0.00 | 0.00 | 10 | 1007.5 |
| 20260504235454 | 73 | 239 | 6.1 | 7.8 | 0.00 | 0.00 | 0.00 | 10 | 1007.3 |
| 20260504234951 | 73 | 250 | 7.8 | 8.7 | 0.00 | 0.00 | 0.00 | 10 | 1007.5 |
| 20260504234448 | 73 | 243 | 7.0 | 7.8 | 0.00 | 0.00 | 0.00 | 10 | 1007.5 |
| 20260504233944 | 73 | 241 | 7.0 | 7.8 | 0.00 | 0.00 | 0.00 | 10 | 1007.5 |
| 20260504233440 | 73 | 228 | 9.6 | 12.2 | 0.00 | 0.00 | 0.00 | 10 | 1007.5 |
| 20260504232937 | 73 | 247 | 11.3 | 12.2 | 0.00 | 0.00 | 0.00 | 10 | 1007.5 |
| 20260504232434 | 73 | 247 | 8.7 | 9.6 | 0.00 | 0.00 | 0.00 | 10 | 1007.6 |
| 20260504231931 | 73 | 230 | 10.4 | 12.2 | 0.00 | 0.00 | 0.00 | 10 | 1007.4 |
| 20260504231428 | 73 | 241 | 11.3 | 13.0 | 0.00 | 0.00 | 0.00 | 10 | 1007.6 |
| 20260504230924 | 72 | 238 | 12.2 | 13.0 | 0.00 | 0.00 | 0.00 | 10 | 1007.5 |
| 20260504230421 | 73 | 251 | 7.8 | 8.7 | 0.00 | 0.00 | 0.00 | 10 | 1007.6 |
| 20260504225920 | 72 | 238 | 9.6 | 11.3 | 0.00 | 0.00 | 0.00 | 10 | 1007.6 |
| 20260504225416 | 72 | 239 | 9.6 | 9.6 | 0.00 | 0.00 | 0.00 | 10 | 1007.5 |
| 20260504224914 | 72 | 243 | 13.0 | 14.8 | 0.00 | 0.00 | 0.00 | 10 | 1007.6 |
| 20260504224410 | 72 | 248 | 12.2 | 15.6 | 0.00 | 0.00 | 0.00 | 10 | 1007.5 |
| 20260504223908 | 73 | 229 | 14.8 | 17.4 | 0.00 | 0.00 | 0.00 | 10 | 1007.5 |
| 20260504223403 | 73 | 225 | 12.2 | 13.9 | 0.00 | 0.00 | 0.00 | 10 | 1007.7 |
| 20260504222859 | 72 | 247 | 13.9 | 15.6 | 0.00 | 0.00 | 0.00 | 10 | 1007.4 |
| 20260504222356 | 71 | 248 | 8.7 | 11.3 | 0.00 | 0.00 | 0.00 | 10 | 1007.5 |
| 20260504221855 | 75 | 229 | 8.7 | 9.6 | 0.00 | 0.00 | 0.00 | 10 | 1007.6 |
| 20260504221350 | 74 | 226 | 4.3 | 5.2 | 0.00 | 0.00 | 0.00 | 10 | 1007.4 |
| 20260504220847 | 74 | 269 | 9.6 | 12.2 | 0.00 | 0.00 | 0.00 | 10 | 1007.8 |
| 20260504220344 | 74 | 212 | 6.1 | 11.3 | 0.00 | 0.00 | 0.00 | 10 | 1007.5 |
| 20260504215841 | 75 | 267 | 7.8 | 9.6 | 0.00 | 0.00 | 0.00 | 10 | 1007.5 |
| 20260504215337 | 74 | 206 | 0.9 | 1.7 | 0.00 | 0.00 | 0.00 | 10 | 1007.7 |
| 20260504214834 | 74 | 224 | 4.3 | 6.1 | 0.00 | 0.00 | 0.00 | 10 | 1008.1 |
| 20260504214331 | 74 | 238 | 4.3 | 5.2 | 0.00 | 0.00 | 0.00 | 10 | 1007.8 |
| 20260504213827 | 75 | 253 | 3.5 | 5.2 | 0.00 | 0.00 | 0.00 | 10 | 1008.0 |
| 20260504213323 | 74 | 252 | 1.7 | 1.7 | 0.00 | 0.00 | 0.00 | 10 | 1008.1 |
| 20260504212821 | 75 | 175 | 5.2 | 6.1 | 0.00 | 0.00 | 0.00 | 10 | 1008.2 |
| 20260504212317 | 74 | 230 | 5.2 | 6.1 | 0.00 | 0.00 | 0.00 | 10 | 1008.3 |
| 20260504211815 | 75 | 264 | 6.1 | 7.8 | 0.00 | 0.00 | 0.00 | 10 | 1008.5 |
| 20260504211310 | 74 | 271 | 7.0 | 7.8 | 0.00 | 0.00 | 0.00 | 10 | 1008.3 |
| 20260504210808 | 74 | 234 | 6.1 | 7.0 | 0.00 | 0.00 | 0.00 | 10 | 1008.4 |
| 20260504210305 | 74 | 274 | 6.1 | 7.8 | 0.00 | 0.00 | 0.00 | 10 | 1008.5 |
| 20260504205802 | 73 | 232 | 6.1 | 7.8 | 0.00 | 0.00 | 0.00 | 10 | 1008.4 |
| 20260504205300 | 74 | 275 | 4.3 | 5.2 | 0.00 | 0.00 | 0.00 | 10 | 1008.6 |
| 20260504204758 | 74 | 253 | 3.5 | 5.2 | 0.00 | 0.00 | 0.00 | 10 | 1008.8 |
| 20260504204256 | 74 | 260 | 3.5 | 4.3 | 0.00 | 0.00 | 0.00 | 10 | 1008.8 |
| 20260504203755 | 74 | 336 | 7.0 | 7.8 | 0.00 | 0.00 | 0.00 | 10 | 1008.6 |
| 20260504203253 | 74 | 252 | 4.3 | 5.2 | 0.00 | 0.00 | 0.00 | 10 | 1008.9 |
| 20260504202752 | 73 | 287 | 4.3 | 6.1 | 0.00 | 0.00 | 0.00 | 10 | 1008.8 |
| 20260504202250 | 73 | 268 | 4.3 | 7.8 | 0.00 | 0.00 | 0.00 | 10 | 1008.6 |
| 20260504201747 | 74 | 216 | 0.9 | 1.7 | 0.00 | 0.00 | 0.00 | 10 | 1008.9 |
| 20260504201244 | 73 | 241 | 2.6 | 2.6 | 0.00 | 0.00 | 0.00 | 10 | 1009.0 |
| 20260504200742 | 73 | 331 | 3.5 | 4.3 | 0.00 | 0.00 | 0.00 | 10 | 1009.1 |
| 20260504200237 | 73 | 266 | 7.0 | 7.8 | 0.00 | 0.00 | 0.00 | 10 | 1009.0 |
| 20260504195734 | 72 | 224 | 4.3 | 6.1 | 0.00 | 0.00 | 0.00 | 10 | 1009.1 |
| 20260504195230 | 73 | 245 | 7.0 | 7.8 | 0.00 | 0.00 | 0.00 | 10 | 1009.1 |
| 20260504194728 | 72 | 280 | 5.2 | 6.1 | 0.00 | 0.00 | 0.00 | 10 | 1009.3 |
| 20260504194223 | 72 | 222 | 4.3 | 6.1 | 0.00 | 0.00 | 0.00 | 10 | 1009.2 |
| 20260504193720 | 73 | 254 | 6.1 | 7.0 | 0.00 | 0.00 | 0.00 | 10 | 1009.3 |
| 20260504193218 | 73 | 246 | 4.3 | 5.2 | 0.00 | 0.00 | 0.00 | 10 | 1009.5 |
| 20260504192716 | 71 | 242 | 7.0 | 7.8 | 0.00 | 0.00 | 0.00 | 10 | 1009.5 |
| 20260504192213 | 72 | 246 | 6.1 | 7.0 | 0.00 | 0.00 | 0.00 | 10 | 1009.7 |
| 20260504191712 | 73 | 238 | 7.8 | 8.7 | 0.00 | 0.00 | 0.00 | 10 | 1009.5 |
| 20260504191208 | 71 | 241 | 3.5 | 4.3 | 0.00 | 0.00 | 0.00 | 10 | 1009.8 |
| 20260504190703 | 72 | 310 | 4.3 | 7.8 | 0.00 | 0.00 | 0.00 | 10 | 1009.7 |
| 20260504190200 | 72 | 273 | 6.1 | 7.8 | 0.00 | 0.00 | 0.00 | 10 | 1009.9 |
| 20260504185657 | 72 | 254 | 6.1 | 7.8 | 0.00 | 0.00 | 0.00 | 10 | 1009.8 |
| 20260504185153 | 72 | 289 | 4.3 | 6.1 | 0.00 | 0.00 | 0.00 | 10 | 1009.9 |
| 20260504184649 | 72 | 248 | 5.2 | 6.1 | 0.00 | 0.00 | 0.00 | 10 | 1009.9 |
| 20260504184144 | 72 | 309 | 1.7 | 2.6 | 0.00 | 0.00 | 0.00 | 10 | 1009.9 |
| 20260504183642 | 72 | 257 | 5.2 | 7.0 | 0.00 | 0.00 | 0.00 | 10 | 1009.8 |
| 20260504183139 | 73 | 260 | 5.2 | 6.1 | 0.00 | 0.00 | 0.00 | 10 | 1010.0 |
| 20260504182637 | 72 | 278 | 4.3 | 6.1 | 0.00 | 0.00 | 0.00 | 10 | 1010.1 |
| 20260504182135 | 72 | 254 | 7.0 | 7.8 | 0.00 | 0.00 | 0.00 | 10 | 1010.2 |
| 20260504181632 | 73 | 302 | 5.2 | 8.7 | 0.00 | 0.00 | 0.00 | 10 | 1009.9 |
| 20260504181129 | 71 | 220 | 2.6 | 2.6 | 0.00 | 0.00 | 0.00 | 10 | 1010.3 |
| 20260504180628 | 73 | 281 | 3.5 | 4.3 | 0.00 | 0.00 | 0.00 | 10 | 1010.3 |
| 20260504180126 | 71 | 212 | 1.7 | 1.7 | 0.00 | 0.00 | 0.00 | 10 | 1010.5 |
| 20260504175623 | 71 | 315 | 3.5 | 4.3 | 0.00 | 0.00 | 0.00 | 10 | 1010.5 |
| 20260504175120 | 72 | 170 | 4.3 | 6.1 | 0.00 | 0.00 | 0.00 | 10 | 1010.5 |
| 20260504174618 | 72 | 126 | 2.6 | 2.6 | 0.00 | 0.00 | 0.00 | 10 | 1010.7 |
| 20260504174114 | 72 | 95 | 2.6 | 4.3 | 0.00 | 0.00 | 0.00 | 10 | 1010.5 |
| 20260504173611 | 71 | 184 | 2.6 | 4.3 | 0.00 | 0.00 | 0.00 | 10 | 1010.5 |
| 20260504173109 | 71 | 226 | 4.3 | 6.1 | 0.00 | 0.00 | 0.00 | 10 | 1010.8 |
| 20260504172605 | 71 | 138 | 4.3 | 5.2 | 0.00 | 0.00 | 0.00 | 10 | 1010.6 |
| 20260504172102 | 71 | 189 | 0.0 | 0.9 | 0.00 | 0.00 | 0.00 | 10 | 1010.8 |
| 20260504171558 | 71 | 159 | 2.6 | 4.3 | 0.00 | 0.00 | 0.00 | 10 | 1010.6 |
| 20260504171055 | 70 | 163 | 1.7 | 2.6 | 0.00 | 0.00 | 0.00 | 10 | 1010.8 |
| 20260504170551 | 70 | 209 | 5.2 | 7.0 | 0.00 | 0.00 | 0.00 | 10 | 1010.8 |